Terminal Aerodrome Forecast
Issued by NWS

Home | Current Version | Previous Version | Text Only | Print | Product List | Glossary On
Versions: 1 2 3 4 5 6 7 8 9 10 11 12 13 14 15
614
FTUS42 KTAE 252326
TAFABY
TAF
KABY 252326Z 2600/2624 17006KT P6SM SCT070 BKN090
     FM260600 VRB08G13KT 6SM SHRA OVC040
     FM261000 14006KT 6SM BR FEW025 BKN040
     FM261300 17010KT P6SM BKN050=

USA.gov is the U.S. government's official web portal to all federal, state and local government web resources and services.